When you browse on this site, cookies collect data to enhance your experience and personalize the content and advertising you see.
Visit our Privacy Policy to learn more. By continuing to use the site, you agree to this use of cookies and data.
  • In Schweiz
  • Länderverzeichnis
  • Für 7 Tage
  • Wassertemperatur
  • Wetterkarte
  • Widgets
  • user-avatar
    Anmelden

    Stündliche Wetter Cam Ranh

    Heute, 23 August, Freitag

    Zeit Temperatur Niederschläge Wind Luftdruck Luftfeuchtigkeit
    00:00 +28°C° 0 mm 3 m/S 752 mmHg 83%
    01:00 +28°C° 0 mm 3 m/S 751 mmHg 82%
    02:00 +28°C° 0 mm 3 m/S 751 mmHg 81%
    03:00 +28°C° 0 mm 3 m/S 751 mmHg 81%
    04:00 +28°C° 0 mm 3 m/S 750 mmHg 80%
    05:00 +28°C° 0 mm 3 m/S 751 mmHg 78%
    06:00 +29°C° 0 mm 2 m/S 751 mmHg 77%
    07:00 +29°C° 0 mm 2 m/S 752 mmHg 75%
    08:00 +31°C° 0 mm 2 m/S 752 mmHg 69%
    09:00 +32°C° 0 mm 1 m/S 752 mmHg 64%
    10:00 +33°C° 0 mm 1 m/S 752 mmHg 58%
    11:00 +34°C° 0.1 mm 2 m/S 752 mmHg 60%
    12:00 +34°C° 0.1 mm 3 m/S 751 mmHg 63%
    13:00 +35°C° 0 mm 3 m/S 751 mmHg 62%
    14:00 +34°C° 0.3 mm 4 m/S 750 mmHg 66%
    15:00 +34°C° 0.3 mm 4 m/S 750 mmHg 69%
    16:00 +33°C° 0.3 mm 4 m/S 750 mmHg 73%
    17:00 +32°C° 0.2 mm 4 m/S 750 mmHg 77%
    18:00 +30°C° 0.2 mm 3 m/S 750 mmHg 80%
    19:00 +29°C° 0.2 mm 3 m/S 750 mmHg 84%
    20:00 +29°C° 0.5 mm 3 m/S 751 mmHg 84%
    21:00 +29°C° 0.5 mm 2 m/S 752 mmHg 83%
    22:00 +29°C° 0.5 mm 2 m/S 752 mmHg 82%
    23:00 +29°C° 0 mm 2 m/S 752 mmHg 82%

    Morgen, 24 August, Samstag

    Zeit Temperatur Niederschläge Wind Luftdruck Luftfeuchtigkeit
    00:00 +29°C° 0 mm 2 m/S 751 mmHg 82%
    01:00 +29°C° 0 mm 2 m/S 751 mmHg 82%
    02:00 +29°C° 0.1 mm 2 m/S 751 mmHg 82%
    03:00 +28°C° 0.1 mm 2 m/S 750 mmHg 82%
    04:00 +28°C° 0.1 mm 2 m/S 750 mmHg 81%
    05:00 +29°C° 0.3 mm 1 m/S 750 mmHg 81%
    06:00 +29°C° 0.3 mm 1 m/S 751 mmHg 81%
    07:00 +29°C° 0.3 mm 1 m/S 751 mmHg 80%
    08:00 +30°C° 0.1 mm 1 m/S 751 mmHg 77%
    09:00 +31°C° 0.1 mm 1 m/S 751 mmHg 74%
    10:00 +32°C° 0.1 mm 1 m/S 752 mmHg 70%
    11:00 +31°C° 0 mm 1 m/S 751 mmHg 71%
    12:00 +31°C° 0 mm 1 m/S 750 mmHg 72%
    13:00 +31°C° 0 mm 2 m/S 750 mmHg 72%
    14:00 +31°C° 0 mm 2 m/S 749 mmHg 72%
    15:00 +33°C° 0 mm 3 m/S 749 mmHg 71%
    16:00 +33°C° 0 mm 3 m/S 748 mmHg 70%
    17:00 +31°C° 0.1 mm 3 m/S 749 mmHg 75%
    18:00 +30°C° 0.1 mm 3 m/S 749 mmHg 80%
    19:00 +29°C° 0.1 mm 3 m/S 750 mmHg 85%
    20:00 +29°C° 0.4 mm 3 m/S 750 mmHg 85%
    21:00 +29°C° 0.4 mm 3 m/S 751 mmHg 85%
    22:00 +29°C° 0.4 mm 2 m/S 751 mmHg 85%
    23:00 +29°C° 0.1 mm 2 m/S 751 mmHg 84%

    übermorgen, 25 August, Sonntag

    Zeit Temperatur Niederschläge Wind Luftdruck Luftfeuchtigkeit
    00:00 +28°C° 0.1 mm 2 m/S 751 mmHg 83%
    01:00 +28°C° 0.1 mm 2 m/S 750 mmHg 82%
    02:00 +28°C° 0 mm 2 m/S 750 mmHg 82%
    03:00 +28°C° 0 mm 2 m/S 750 mmHg 81%
    04:00 +28°C° 0 mm 2 m/S 749 mmHg 80%
    05:00 +28°C° 0 mm 2 m/S 750 mmHg 79%
    06:00 +28°C° 0 mm 2 m/S 750 mmHg 78%
    07:00 +29°C° 0 mm 2 m/S 751 mmHg 77%
    08:00 +30°C° 0 mm 1 m/S 751 mmHg 71%
    09:00 +31°C° 0 mm 1 m/S 751 mmHg 65%
    10:00 +33°C° 0 mm 1 m/S 751 mmHg 59%
    11:00 +34°C° 0 mm 2 m/S 751 mmHg 62%
    12:00 +34°C° 0 mm 3 m/S 750 mmHg 64%
    13:00 +34°C° 0 mm 4 m/S 750 mmHg 66%
    14:00 +34°C° 0.1 mm 4 m/S 749 mmHg 69%
    15:00 +33°C° 0.1 mm 4 m/S 749 mmHg 71%
    16:00 +33°C° 0.1 mm 5 m/S 748 mmHg 74%
    17:00 +32°C° 0.2 mm 5 m/S 749 mmHg 78%
    18:00 +30°C° 0.2 mm 4 m/S 749 mmHg 81%
    19:00 +30°C° 0.2 mm 4 m/S 750 mmHg 85%
    20:00 +29°C° 0 mm 4 m/S 750 mmHg 85%
    21:00 +29°C° 0 mm 3 m/S 751 mmHg 84%
    22:00 +29°C° 0 mm 3 m/S 751 mmHg 84%
    23:00 +29°C° 0 mm 3 m/S 751 mmHg 83%

    26 August, Montag

    Zeit Temperatur Niederschläge Wind Luftdruck Luftfeuchtigkeit
    00:00 +29°C° 0 mm 3 m/S 751 mmHg 83%
    01:00 +28°C° 0 mm 2 m/S 750 mmHg 82%
    02:00 +28°C° 0 mm 2 m/S 750 mmHg 80%
    03:00 +28°C° 0 mm 2 m/S 750 mmHg 78%
    04:00 +28°C° 0 mm 2 m/S 750 mmHg 77%
    05:00 +28°C° 0 mm 2 m/S 750 mmHg 75%
    06:00 +29°C° 0 mm 2 m/S 750 mmHg 73%
    07:00 +29°C° 0 mm 2 m/S 751 mmHg 72%
    08:00 +31°C° 0 mm 2 m/S 751 mmHg 67%
    09:00 +32°C° 0 mm 1 m/S 751 mmHg 62%
    10:00 +33°C° 0 mm 1 m/S 751 mmHg 57%
    11:00 +35°C° 0 mm 2 m/S 750 mmHg 60%
    12:00 +35°C° 0 mm 4 m/S 750 mmHg 62%
    13:00 +35°C° 0 mm 5 m/S 749 mmHg 64%
    14:00 +34°C° 0.2 mm 5 m/S 749 mmHg 67%
    15:00 +34°C° 0.2 mm 5 m/S 748 mmHg 69%
    16:00 +34°C° 0.2 mm 5 m/S 748 mmHg 71%
    17:00 +33°C° 0.2 mm 5 m/S 749 mmHg 75%
    18:00 +32°C° 0.2 mm 5 m/S 749 mmHg 79%
    19:00 +30°C° 0.2 mm 4 m/S 750 mmHg 84%
    20:00 +29°C° 0 mm 4 m/S 750 mmHg 84%
    21:00 +29°C° 0 mm 4 m/S 751 mmHg 83%
    22:00 +29°C° 0 mm 3 m/S 751 mmHg 83%
    23:00 +29°C° 0 mm 3 m/S 751 mmHg 82%

    27 August, Dienstag

    Zeit Temperatur Niederschläge Wind Luftdruck Luftfeuchtigkeit
    00:00 +29°C° 0 mm 2 m/S 750 mmHg 81%
    01:00 +29°C° 0 mm 2 m/S 750 mmHg 80%
    02:00 +28°C° 0.1 mm 2 m/S 750 mmHg 80%
    03:00 +28°C° 0.1 mm 2 m/S 750 mmHg 80%
    04:00 +28°C° 0.1 mm 2 m/S 749 mmHg 80%
    05:00 +28°C° 0 mm 2 m/S 750 mmHg 78%
    06:00 +29°C° 0 mm 2 m/S 750 mmHg 77%
    07:00 +29°C° 0 mm 2 m/S 750 mmHg 76%
    08:00 +31°C° 0 mm 2 m/S 750 mmHg 70%
    09:00 +32°C° 0 mm 1 m/S 751 mmHg 65%
    10:00 +34°C° 0 mm 1 m/S 751 mmHg 59%
    11:00 +35°C° 0.1 mm 2 m/S 750 mmHg 61%
    12:00 +35°C° 0.1 mm 3 m/S 749 mmHg 63%
    13:00 +34°C° 0.1 mm 3 m/S 749 mmHg 66%
    14:00 +34°C° 0.8 mm 3 m/S 748 mmHg 68%
    15:00 +33°C° 0.8 mm 3 m/S 748 mmHg 71%
    16:00 +33°C° 0.8 mm 3 m/S 748 mmHg 74%
    17:00 +31°C° 0.6 mm 2 m/S 748 mmHg 78%
    18:00 +30°C° 0.6 mm 2 m/S 749 mmHg 81%
    19:00 +30°C° 0.6 mm 1 m/S 749 mmHg 85%
    20:00 +29°C° 0.3 mm 1 m/S 750 mmHg 85%
    21:00 +29°C° 0.3 mm 1 m/S 751 mmHg 84%
    22:00 +29°C° 0.3 mm 1 m/S 751 mmHg 84%
    23:00 +29°C° 0.1 mm 2 m/S 751 mmHg 83%

    28 August, Mittwoch

    Zeit Temperatur Niederschläge Wind Luftdruck Luftfeuchtigkeit
    00:00 +29°C° 0.1 mm 2 m/S 750 mmHg 83%
    01:00 +28°C° 0.1 mm 3 m/S 750 mmHg 82%
    02:00 +28°C° 0.1 mm 3 m/S 750 mmHg 82%
    03:00 +28°C° 0.1 mm 3 m/S 750 mmHg 82%
    04:00 +28°C° 0.1 mm 3 m/S 750 mmHg 82%
    05:00 +29°C° 0 mm 2 m/S 750 mmHg 81%
    06:00 +29°C° 0 mm 2 m/S 750 mmHg 79%
    07:00 +30°C° 0 mm 1 m/S 750 mmHg 78%
    08:00 +31°C° 0 mm 1 m/S 750 mmHg 72%
    09:00 +32°C° 0 mm 1 m/S 750 mmHg 67%
    10:00 +33°C° 0 mm 1 m/S 751 mmHg 61%
    11:00 +34°C° 0.4 mm 2 m/S 750 mmHg 64%
    12:00 +34°C° 0.4 mm 2 m/S 749 mmHg 67%
    13:00 +32°C° 0.4 mm 2 m/S 748 mmHg 70%
    14:00 +32°C° 1.1 mm 2 m/S 748 mmHg 74%
    15:00 +31°C° 1.1 mm 2 m/S 748 mmHg 77%
    16:00 +31°C° 1.1 mm 2 m/S 748 mmHg 80%
    17:00 +30°C° 1.6 mm 2 m/S 748 mmHg 81%
    18:00 +30°C° 1.6 mm 2 m/S 749 mmHg 83%
    19:00 +29°C° 1.6 mm 1 m/S 749 mmHg 84%
    20:00 +29°C° 0.4 mm 1 m/S 750 mmHg 84%
    21:00 +29°C° 0.4 mm 1 m/S 750 mmHg 84%
    22:00 +29°C° 0.4 mm 1 m/S 751 mmHg 85%
    23:00 +29°C° 0.6 mm 2 m/S 750 mmHg 85%
    Mehr zeigen